Regional Weather Roundup
Issued by NWS

Home | Current Version | Previous Version | Graphics & Text | Print | Product List | Glossary On
Versions: 1 2 3 4 5 6 7 8 9 10 11 12 13 14 15 16 17 18 19 20 21 22 23 24 25 26 27 28 29 30 31 32 33 34 35 36 37 38 39 40 41 42 43 44 45 46 47 48 49 50
000
ASUS43 KOAX 221210
RWRNE

WEATHER ROUNDUP FOR NEBRASKA
NATIONAL WEATHER SERVICE OMAHA NE
700 AM CDT FRI SEP 22 2017

NOTES: SATELLITE DATA IS BEING USED TO AUGMENT CLOUD COVER ABOVE
       12000 FEET.
       "FAIR" INDICATES FEW OR NO CLOUDS BELOW 12,000 FEET WITH NO
       SIGNIFICANT WEATHER AND/OR OBSTRUCTIONS TO VISIBILITY.


NEZ001>004-019>022-054>056-221300-
NEBRASKA PANHANDLE

CITY           SKY/WX    TMP DP  RH WIND       PRES   REMARKS
SCOTTSBLUFF    CLOUDY    44  40  85 NW5       29.78R
6HR MIN TEMP:  44; 6HR MAX TEMP:  62;

ALLIANCE       CLOUDY    45  40  82 N8        29.76R
6HR MIN TEMP:  45; 6HR MAX TEMP:  58;

CHADRON        CLEAR     43  37  79 W7        29.77R
6HR MIN TEMP:  43; 6HR MAX TEMP:  59;

GORDON         FAIR      46  40  78 NW9G16    29.73R
6HR MIN TEMP:  46; 6HR MAX TEMP:  59;

KIMBALL        CLOUDY    46  40  79 NW10      29.78R
SIDNEY         CLEAR     47  40  76 NW7       29.76R
6HR MIN TEMP:  47; 6HR MAX TEMP:  60;

$$

NEZ057>060-069>072-079>082-221300-
SOUTHWEST NEBRASKA

CITY           SKY/WX    TMP DP  RH WIND       PRES   REMARKS
NORTH PLATTE   CLEAR     73  62  68 S14       29.68R
6HR MIN TEMP:  73; 6HR MAX TEMP:  79;

IMPERIAL       CLEAR     63  48  58 S13       29.70R
6HR MIN TEMP:  63; 6HR MAX TEMP:  73;

LEXINGTON      CLEAR     76  65  69 S16G24    29.72S
MCCOOK         LGT RAIN  75  62  64 S24G32    29.71R
6HR MIN TEMP:  75; 6HR MAX TEMP:  81; 6HR PCP: TRACE;

OGALLALA       CLEAR     55  45  68 W6        29.72R
$$

NEZ005>010-023>029-035>040-094-221300-
NORTH CENTRAL NEBRASKA

CITY           SKY/WX    TMP DP  RH WIND       PRES   REMARKS
VALENTINE      CLEAR     55  49  80 W8        29.65R
6HR MIN TEMP:  55; 6HR MAX TEMP:  73;

AINSWORTH      CLEAR     72  67  84 S20G25    29.64S
BROKEN BOW     CLEAR     75  66  73 S18       29.71S
6HR MIN TEMP:  74; 6HR MAX TEMP:  78;

O`NEILL        CLEAR     76  69  78 S21G29    29.68S
ORD            CLEAR     75  66  73 S14       29.71R
6HR MIN TEMP:  75; 6HR MAX TEMP:  79;

THEDFORD       CLEAR     72  64  76 S15G21    29.68R
$$

NEZ041-046>049-061>064-073>077-083>087-221300-
SOUTH CENTRAL NEBRASKA

CITY           SKY/WX    TMP DP  RH WIND       PRES   REMARKS
GRAND ISLAND   CLEAR     75  69  81 S16       29.76S
6HR MIN TEMP:  75; 6HR MAX TEMP:  81;

AURORA         CLEAR     75  69  81 S15G24    29.78R
HASTINGS       CLEAR     75  67  76 S14G21    29.79R
6HR MIN TEMP:  75; 6HR MAX TEMP:  82;

HEBRON         CLEAR     77  67  72 S12G18    29.81S
HOLDREGE       CLEAR     74  64  69 S16G22    29.75R
KEARNEY        CLEAR     75  67  76 S21       29.75R
YORK           CLEAR     75  68  78 S13       29.80R
$$

NEZ011>018-030>034-042>045-221300-
NORTHEAST NEBRASKA

CITY           SKY/WX    TMP DP  RH WIND       PRES   REMARKS
NORFOLK        CLEAR     75  70  84 S18G28    29.74S
6HR MIN TEMP:  75; 6HR MAX TEMP:  80;

ALBION         PTCLDY    76  70  81 S13G21    29.74S
BLAIR          CLEAR     76  70  81 S15       29.83R
COLUMBUS       CLEAR     76  69  79 S12G20    29.78R
FREMONT        CLEAR     75  69  79 S13       29.81S
TEKAMAH        CLEAR     76  69  79 S10       29.80R
6HR MIN TEMP:  76; 6HR MAX TEMP:  80;

WAYNE          CLEAR     74  71  91 S17       29.76S
$$

NEZ050>053-065>068-078-088>093-221300-
SOUTHEAST NEBRASKA

CITY           SKY/WX    TMP DP  RH WIND       PRES   REMARKS
LINCOLN        CLEAR     75  69  81 S14       29.82R
6HR MIN TEMP:  75; 6HR MAX TEMP:  81;

OMAHA EPPLEY   PTCLDY    77  69  76 S15       29.83S
6HR MIN TEMP:  77; 6HR MAX TEMP:  81;

BEATRICE       CLEAR     76  69  79 S9        29.85R
FALLS CITY     CLEAR     76  69  79 S10       29.88R
6HR MIN TEMP:  76; 6HR MAX TEMP:  80;

NEBRASKA CITY  CLEAR     75  72  90 S10       29.87R
PLATTSMOUTH    PTCLDY    76  71  83 S13       29.85S
$$

NEZ044-045-051>053-067-221300-
OMAHA AREA

CITY           SKY/WX    TMP DP  RH WIND       PRES   REMARKS
OMAHA EPPLEY   PTCLDY    77  69  76 S15       29.83S
6HR MIN TEMP:  77; 6HR MAX TEMP:  81;

BLAIR          CLEAR     76  70  81 S15       29.83R
FREMONT        CLEAR     75  69  79 S13       29.81S
MILLARD        CLEAR     78  71  79 SE9       29.83S
OFFUTT AFB     CLEAR     74  70  85 SE6       29.83S
PLATTSMOUTH    PTCLDY    76  71  83 S13       29.85S
WAHOO          FAIR      75  69  81 SE9       29.82R
$$




USA.gov is the U.S. government's official web portal to all federal, state and local government web resources and services.